Regional Weather Roundup
Issued by NWS

Home | Current Version | Previous Version | Graphics & Text | Print | Product List | Glossary On
Versions: 1 2 3 4 5 6 7 8 9 10 11 12 13 14 15 16 17 18 19 20 21 22 23 24 25 26 27 28 29 30 31 32 33 34 35 36 37 38 39 40 41 42 43 44 45 46 47 48 49 50
000
ASUS43 KOAX 060102
RWRNE

WEATHER ROUNDUP FOR NEBRASKA
NATIONAL WEATHER SERVICE OMAHA NE
700 PM CST THU MAR 05 2015

NOTES: SATELLITE DATA IS BEING USED TO AUGMENT CLOUD COVER ABOVE
       12000 FEET.
       "FAIR" INDICATES FEW OR NO CLOUDS BELOW 12,000 FEET WITH NO
       SIGNIFICANT WEATHER AND/OR OBSTRUCTIONS TO VISIBILITY.

  * THESE STATIONS DO NOT REPORT WEATHER SUCH AS RAIN...SNOW OR FOG.

NEZ001>004-019>022-054>056-060200-
NEBRASKA PANHANDLE

CITY           SKY/WX    TMP DP  RH WIND       PRES   REMARKS
SCOTTSBLUFF    CLEAR     36  16  44 W6        30.21R WCI  31
ALLIANCE       CLEAR     36  11  35 NW10      30.18R WCI  28
CHADRON        CLEAR     36  22  56 W17       30.18R WCI  26
KIMBALL        MOCLDY    36  18  48 NW10      30.20R WCI  28
SIDNEY         PTCLDY    35  15  44 W6        30.22R WCI  30
$$

NEZ057>060-069>072-079>082-060200-
SOUTHWEST NEBRASKA

CITY           SKY/WX    TMP DP  RH WIND       PRES   REMARKS
NORTH PLATTE   CLEAR     35   8  32 W3        30.19R
IMPERIAL         N/A     39  11  31 NW7       30.22R WCI  34
LEXINGTON      CLEAR     35  10  35 S9        30.21S WCI  27
MCCOOK         CLEAR     42  12  29 W7        30.23R
$$

NEZ005>010-023>029-035>040-094-060200-
NORTH CENTRAL NEBRASKA

CITY           SKY/WX    TMP DP  RH WIND       PRES   REMARKS
VALENTINE      PTCLDY    34  13  41 W7        30.15R WCI  28
AINSWORTH      PTCLDY    33   8  34 SW5       30.15S WCI  29
BROKEN BOW     CLEAR     36  11  35 E7        30.18S WCI  30
ORD            PTCLDY    32   8  36 S6        30.21R WCI  26
$$

NEZ041-046>049-061>064-073>077-083>087-060200-
SOUTH CENTRAL NEBRASKA

CITY           SKY/WX    TMP DP  RH WIND       PRES   REMARKS
GRAND ISLAND   CLEAR     32   8  36 S7        30.27S WCI  26
AURORA         PTCLDY    32   7  34 S9        30.27F WCI  24
HASTINGS       PTCLDY    34   4  28 S7        30.26F WCI  28
HEBRON         PTCLDY    31   6  34 S6        30.34F WCI  25
HOLDREGE       PTCLDY    32   7  34 S7        30.24S WCI  26
KEARNEY *      CLEAR     32   9  37 S10       30.25R WCI  24
YORK           PTCLDY    32   7  34 S10       30.30F WCI  24
$$

NEZ011>018-030>034-042>045-060200-
NORTHEAST NEBRASKA

CITY           SKY/WX    TMP DP  RH WIND       PRES   REMARKS
NORFOLK        CLEAR     28   7  41 SE8       30.27S WCI  20
ALBION         PTCLDY    30   5  34 SE6       30.25S WCI  24
BLAIR          CLEAR     28   6  39 S7        30.37S WCI  20
COLUMBUS *     CLEAR     30   5  34 S9        30.31F WCI  22
FREMONT        CLEAR     29   7  38 SE8       30.36S WCI  21
TEKAMAH        CLEAR     25   6  44 SE10      30.37F WCI  15
WAYNE          CLEAR     24   4  42 S10       30.30F WCI  14
$$

NEZ050>053-065>068-078-088>093-060200-
SOUTHEAST NEBRASKA

CITY           SKY/WX    TMP DP  RH WIND       PRES   REMARKS
LINCOLN        CLEAR     30   8  39 S12       30.37F WCI  20
OMAHA EPPLEY   PTCLDY    28   7  41 S14       30.40F WCI  17
BEATRICE       CLEAR     31   8  37 S6        30.38S WCI  25
FALLS CITY     CLEAR     23   5  46 SE9       30.44S WCI  13
NEBRASKA CITY  CLEAR     24   0  35 S6        30.41F WCI  17
$$

NEZ044-045-051>053-067-060200-
OMAHA AREA

CITY           SKY/WX    TMP DP  RH WIND       PRES   REMARKS
OMAHA EPPLEY   PTCLDY    28   7  41 S14       30.40F WCI  17
BLAIR          CLEAR     28   6  39 S7        30.37S WCI  20
FREMONT        CLEAR     29   7  38 SE8       30.36S WCI  21
OFFUTT AFB     CLEAR     25   7  45 SE9       30.39F WCI  16
WAHOO          FAIR      26   5  41 SE7       30.36S WCI  18
$$


USA.gov is the U.S. government's official web portal to all federal, state and local government web resources and services.